Weather History for Iwojima, Japan

Change the Weather History Date:

Thursday, November 21, 2013

  Actual Average Record
Temperature  
Mean Temperature 73 °F -  
Max Temperature 75 °F 74 °F 82 °F (2003)
Min Temperature 71 °F 69 °F 69 °F (1998)
Cooling Degree Days 8    
Growing Degree Days 23 (Base 50)    
Moisture  
Dew Point 59 °F    
Average Humidity 63    
Maximum Humidity 73    
Minimum Humidity 44    
Precipitation  
Precipitation 0.00 in - - ()
Sea Level Pressure  
Sea Level Pressure 30.07 in    
Wind  
Wind Speed 8 mph ()    
Max Wind Speed 13 mph    
Max Gust Speed -    
Visibility 6.2 miles    
Events      
Averages and records for this station are not official NWS values.
T = Trace of Precipitation, MM = Missing Value Source: Averaged Metar Reports

Daily Weather History Graph

Daily Weather History Graph

Search for Another Location

Airport:

Trip Planner

Search our weather history database for the weather conditions in past years. The results will help you decide how hot, cold, wet, or windy it might be!

Date:

Astronomy

Nov. 21, 2013 Rise Set
Actual Time 6:54 AM ChST 5:45 PM ChST
Civil Twilight 6:30 AM ChST 6:10 PM ChST
Nautical Twilight 6:02 AM ChST 6:37 PM ChST
Astronomical Twilight 5:35 AM ChST 7:05 PM ChST
Moon 8:46 PM ChST (11/21) 9:35 AM ChST (11/21)
Length of Visible Light 11h 39m
Length of Day
10h 50m
Waning Gibbous, 89% of the Moon is Illuminated
Nov 21
Waning Gibbous
Nov 26
Last Quarter
Dec 3
New
Dec 10
First Quarter
Dec 17
Full

Hourly Weather History & Observations

Time (ChST) Temp. Dew Point Humidity Pressure Visibility Wind Dir Wind Speed Gust Speed Precip Events Conditions
12:00 AM 71.6 °F 60.8 °F 69% 30.06 in 6.2 mi NE 8.1 mph - N/A   Scattered Clouds
1:00 AM 71.6 °F 62.6 °F 73% 30.06 in 6.2 mi NE 8.1 mph - N/A   Partly Cloudy
2:00 AM 71.6 °F 60.8 °F 69% 30.06 in 6.2 mi NE 8.1 mph - N/A   Partly Cloudy
3:00 AM 71.6 °F 62.6 °F 73% 30.06 in 6.2 mi NE 8.1 mph - N/A   Partly Cloudy
3:10 AM 71.6 °F 62.6 °F 73% 30.06 in 6.2 mi NE 8.1 mph - N/A   Mostly Cloudy
4:00 AM 71.6 °F 62.6 °F 73% 30.06 in 6.2 mi NE 9.2 mph - N/A   Mostly Cloudy
4:46 AM 71.6 °F 60.8 °F 69% 30.04 in 6.2 mi NNE 9.2 mph - N/A   Mostly Cloudy
5:00 AM 71.6 °F 60.8 °F 69% 30.04 in 6.2 mi NE 8.1 mph - N/A   Mostly Cloudy
5:27 AM 71.6 °F 60.8 °F 69% 30.04 in 6.2 mi NNE 6.9 mph - N/A   Mostly Cloudy
6:00 AM 71.6 °F 60.8 °F 69% 30.04 in 6.2 mi NNE 8.1 mph - N/A   Mostly Cloudy
7:00 AM 71.6 °F 60.8 °F 69% 30.06 in 6.2 mi NNE 8.1 mph - N/A   Mostly Cloudy
8:00 AM 71.6 °F 60.8 °F 69% 30.09 in 6.2 mi NNE 9.2 mph - N/A   Mostly Cloudy
9:00 AM 71.6 °F 59.0 °F 64% 30.12 in 6.2 mi NNE 10.4 mph - N/A   Mostly Cloudy
10:00 AM 71.6 °F 55.4 °F 57% 30.12 in 6.2 mi NNE 9.2 mph - N/A   Mostly Cloudy
11:00 AM 75.2 °F 55.4 °F 50% 30.09 in 6.2 mi NE 11.5 mph - N/A   Mostly Cloudy
12:00 PM 73.4 °F 51.8 °F 47% 30.09 in 6.2 mi ENE 11.5 mph - N/A   Partly Cloudy
1:00 PM 75.2 °F 51.8 °F 44% 30.06 in 6.2 mi NE 11.5 mph - N/A   Scattered Clouds
2:00 PM 75.2 °F 51.8 °F 44% 30.04 in 6.2 mi NE 11.5 mph - N/A   Partly Cloudy
3:00 PM 73.4 °F 53.6 °F 50% 30.04 in 6.2 mi NE 12.7 mph - N/A   Partly Cloudy
4:00 PM 75.2 °F 55.4 °F 50% 30.04 in 6.2 mi NE 11.5 mph - N/A   Partly Cloudy
5:00 PM 73.4 °F 57.2 °F 57% 30.06 in 6.2 mi NE 10.4 mph - N/A   Partly Cloudy
6:00 PM 71.6 °F 59.0 °F 64% 30.06 in 6.2 mi NE 11.5 mph - N/A   Partly Cloudy
7:00 PM 71.6 °F 60.8 °F 69% 30.09 in 6.2 mi NE 11.5 mph - N/A   Partly Cloudy
8:00 PM 71.6 °F 57.2 °F 60% 30.09 in 6.2 mi NE 11.5 mph - N/A   Partly Cloudy
9:00 PM 71.6 °F 60.8 °F 69% 30.09 in 6.2 mi ENE 9.2 mph - N/A   Partly Cloudy
10:00 PM 71.6 °F 59.0 °F 64% 30.09 in 6.2 mi NE 9.2 mph - N/A   Partly Cloudy
11:00 PM 71.6 °F 59.0 °F 64% 30.09 in 6.2 mi ENE 9.2 mph - N/A   Partly Cloudy